User: anonymous   Login
Location: �clusier
(49.9361°N, 2.7869°E)
Time: 08:00:57
(UTC+00:00)
Language:

FENGYUN 1C DEB - Orbit

View from above orbital plane
View from above orbital plane
View from above satellite
View from above satellite

Ground track
Ground track

The orbit data is extracted from the following two-line orbital elements,

1 32200U 99025CUW 22028.56700147  .00000772  00000-0  47116-3 0  9994
2 32200  98.9201  80.1904 0042625 331.4154  28.4679 14.08556631744123
Epoch (UTC): 28 January 2022 13:36:28
Eccentricity: 0.0042625
inclination: 98.9201°
perigee height: 833 km
apogee height: 895 km
right ascension of ascending node: 80.1904°
argument of perigee: 331.4154°
revolutions per day: 14.08556631
mean anomaly at epoch: 28.4679°
orbit number at epoch: 74412

The dashed part of the orbit path shows where the satellite is in the earth's shadow,  

DLR